STARLINK-32953, 63561

Orbit data source: Space-Track

STARLINK-32953, 63561 is a payload satellite owned by SpaceX/Seattle (US) in LEO that was launched on Sun, 13 Apr 2025 UTC via an FALCON 9 launch vehicle from the Air Force Eastern Test Range (AFETR). Payload-class satellites include a variety of spacecraft equipped with specific instruments for various scientific and technological missions. These include communications satellites like Starlink; space stations such as the ISS; scientific satellites like the Hubble; Earth observation satellites from companies like Planet Labs, Umbra, and HawkEye 360; GPS; miniature CubeSats for education and research; and military/defense satellites.

Loading next visibility...
Identifier
63561, 2025-075P
Orbit
LEO
Country
Flag of USUS
Related business
Manufacturer
SpaceX/Seattle
Mission
Operational Commercial Communications
Bus & Motor
STARLINK V2M, Unknown motor
Mass
730 kg wet, ~700 kg dry
Launch date (UTC)
2025-04-13 (1 year ago)
Launch vehicle
FALCON 9
Launch site
Air Force Eastern Test Range (AFETR)
Object type
Payload
Rocket body
Debris
Shape & HBR
Box + 2 Pan, 17.7 m
Radar Cross Section
33.884 m², Large (>1 m²)

Expand to show TLE details & history
Last TLE update: 19 hours ago

TLE from 19 hours ago
0 STARLINK-32953
1 63561U 25075P   26171.07360693  .00020427  00000-0  74951-3 0  9995
2 63561  43.0026  52.6002 0001178 290.6712  69.4014 15.27591625 67580
Epoch: 2026-06-20T01:45Z
TLE epoch observation values (Epoch: 2026-06-20T01:45:59.638Z)
Latitude
0.00002°
Longitude
117.80826°
Altitude
482.506 km
Speed
7.626 km/s
True Right ascension
03h 30m 24s
True Declination
0° 00' 00"
Sunlit
Object was in daylight at epoch
Visualization orbit readout
Latitude
Unknown
Longitude
Unknown
Altitude
Unknown
Speed
Unknown
Apparent Right ascension
Unknown
Apparent Declination
Unknown
Sunlit
N/A
Visualization observer readout
Local Sidereal Time
07:24:10
Azimuth
Unknown
Elevation
Unknown
Doppler factor
Unknown
Orbital elements
Apogee altitude
485.768 km
Perigee altitude
484.151 km
Semi-major axis
6,863.096 km
Eccentricity
0.00012
Inclination
43.0026°
RAAN
52.6002°
Arg. of periapsis
290.6712°
True anomaly
69.41404°
Mean anomaly
69.4014°
Eccentric anomaly
69.40772°
Mean motion
3.81736 °/min
Orbital period
94.31 mins
BSTAR
0.00074951
Loading maneuver chart data...
Computing Atmospheric mass density...
Loading historical data...
Loading historical data...
Loading historical data...
Loading historical data...
Loading historical data...
Loading historical data...
Loading historical data...

Documentation

Showing up to 5 results
|